Wind_Speed
86 86 87 87 81 70 66 67 70 74 76 80 83 93 103 105 102 97 94 92 90 83 79 78 75 71 67 63 55 54 52 52 47 46 47 48 48 47 46 45 45 47 48
86 85 78 67 60 56 59 61 57 55 54 54 58 62 69 83 93 97 99 100 96 91 86 82 80 75 71 67 59 55 52 51 50 46 46 47 47 47 46 46 47 48 48
75 71 67 61 56 55 57 56 54 52 48 48 51 54 56 64 81 95 99 101 98 96 93 87 85 81 73 71 63 56 53 51 48 44 45 46 46 47 46 46 48 48 50
68 66 65 61 57 55 55 52 49 50 47 46 48 47 50 53 56 67 79 86 97 101 100 92 89 84 74 70 67 56 54 50 46 43 44 44 44 46 46 46 48 49 51
65 64 62 60 58 55 52 51 47 45 44 47 43 42 39 46 45 48 53 53 66 70 63 76 84 90 76 69 66 57 53 48 45 43 42 41 43 45 46 47 47 50 51
66 65 59 58 57 54 50 49 47 47 46 44 38 40 35 36 44 45 49 47 48 51 59 67 83 85 81 67 62 51 49 45 43 42 39 40 42 44 47 48 49 49 51
64 59 54 53 53 51 49 46 42 43 43 38 33 37 39 31 37 43 48 48 48 45 46 55 65 77 80 63 54 47 46 42 41 40 38 39 42 45 47 45 47 50 53
56 54 51 50 51 48 49 45 38 40 40 35 33 31 33 33 40 43 46 53 50 50 51 47 64 60 70 57 49 44 43 41 38 36 36 39 42 43 43 44 46 50 51
54 49 46 48 47 46 46 44 38 38 38 36 33 28 33 35 40 43 40 41 44 55 67 61 51 46 42 55 46 42 41 38 35 35 36 39 39 40 41 42 47 49 54
54 49 50 49 48 42 41 40 36 35 36 35 29 27 30 32 32 32 39 34 40 42 57 48 48 41 43 49 40 41 38 35 33 34 36 34 35 37 40 41 45 52 58
48 48 48 47 40 36 35 34 34 32 32 28 25 22 30 25 23 32 32 35 34 37 44 47 43 41 40 45 41 38 36 32 32 32 30 30 31 34 35 42 49 56 51
42 41 40 35 33 30 30 29 30 29 26 25 20 21 20 17 21 28 27 27 32 44 46 48 48 45 46 43 39 35 32 31 29 26 26 25 27 28 36 43 50 42 46
36 34 31 29 29 28 26 25 26 22 21 17 17 18 10 20 28 31 32 30 38 42 38 47 53 48 45 40 37 33 30 27 23 22 21 20 21 28 35 44 36 41 41
34 30 28 25 24 23 20 21 19 17 14 13 16 10 16 34 25 29 31 36 40 41 51 55 53 46 42 40 33 29 27 22 20 18 14 14 20 27 33 28 31 39 49
29 27 25 18 16 15 16 18 14 12 13 14 9 10 24 24 25 33 30 42 48 50 52 52 48 45 42 34 29 27 22 20 19 11 8 11 18 26 23 20 29 35 32
24 21 19 12 4 10 14 12 11 11 11 7 15 16 17 29 31 27 35 47 52 53 53 52 48 42 35 30 26 24 22 20 13 8 4 11 17 23 11 15 24 21 25
22 17 12 6 5 9 12 11 12 10 8 17 17 18 25 29 25 31 40 46 54 55 54 50 43 36 30 26 25 24 22 15 10 5 3 10 17 17 7 13 20 30 32
20 19 13 5 5 10 13 11 8 9 19 18 22 20 34 30 35 47 50 52 57 55 49 43 37 32 27 25 24 22 18 13 10 5 4 10 15 6 9 15 23 30 36
14 10 6 7 13 14 11 8 12 22 25 23 21 31 38 44 52 51 51 55 51 46 41 37 32 28 24 23 24 21 16 15 11 6 5 10 12 9 14 20 22 24 33
12 12 12 15 15 9 7 11 23 27 21 22 32 42 50 53 51 49 52 50 46 42 36 30 26 23 21 23 23 18 18 16 11 8 8 12 10 17 19 22 23 24 28
22 15 13 12 11 8 9 27 26 21 22 30 42 50 53 50 47 45 46 46 40 36 28 23 20 18 20 24 22 20 20 17 12 10 9 15 12 21 23 26 22 25 33
19 15 14 12 8 11 23 23 20 20 25 38 47 51 48 44 40 38 43 41 34 30 24 16 18 18 22 23 21 22 21 17 14 12 11 14 16 18 23 27 23 24 31
16 15 12 7 17 23 20 18 18 23 33 40 45 49 45 39 37 39 36 32 25 19 14 16 17 17 20 21 21 23 21 18 16 14 12 12 16 13 24 23 25 20 33
12 9 10 8 26 20 17 18 22 31 39 42 46 43 38 32 29 35 33 26 20 18 12 16 17 18 18 19 23 23 22 19 15 13 12 12 14 17 17 16 20 26 28
11 11 10 16 20 17 18 22 26 31 38 43 44 39 35 29 27 27 28 21 15 14 16 17 19 18 18 20 21 23 23 18 13 12 12 11 11 12 15 14 14 22 26
10 15 19 20 19 22 24 26 28 32 32 34 36 30 26 25 24 28 24 19 12 18 17 17 18 16 18 20 21 21 21 18 14 13 12 10 9 9 7 7 10 10 25
Wind_Direction
293 293 291 289 291 288 285 280 276 274 271 266 256 250 249 248 247 247 249 248 249 244 240 241 243 245 249 250 250 250 250 252 249 251 254 256 257 258 260 263 267 270 272
294 294 295 293 289 290 290 287 281 277 275 274 269 262 248 244 244 244 244 245 243 242 240 236 238 240 245 248 249 248 247 249 250 250 251 254 256 259 261 265 270 273 274
295 294 292 289 289 292 293 288 282 279 276 276 275 265 257 247 242 240 239 239 238 238 237 235 233 234 239 244 247 246 245 248 250 248 249 252 256 258 261 266 271 274 275
294 291 288 285 284 285 287 284 280 277 276 278 285 263 262 258 252 248 248 248 239 236 235 232 230 230 234 240 243 244 243 245 248 247 247 251 254 258 262 267 272 274 274
295 292 288 285 282 281 281 278 272 274 277 279 282 262 266 263 256 252 253 250 250 244 223 233 234 227 230 235 239 241 241 241 243 246 246 249 253 259 265 269 272 273 277
296 295 293 288 283 279 278 275 269 270 272 279 283 263 262 263 254 256 258 255 250 237 230 223 230 231 229 231 234 235 239 237 241 244 244 247 254 260 265 269 271 275 279
297 293 289 285 282 278 274 270 266 267 267 273 281 268 259 259 256 256 256 252 244 225 212 215 224 232 227 226 227 230 235 233 238 240 242 249 255 261 266 272 276 279 283
299 296 291 284 282 279 272 268 260 262 262 269 282 265 255 252 256 263 259 254 256 209 195 210 217 227 231 222 221 227 229 232 234 235 242 251 259 265 269 274 281 284 290
299 293 289 288 282 276 270 266 253 256 259 267 279 263 256 254 262 261 259 245 244 206 204 209 216 221 223 217 215 221 225 228 228 235 245 254 262 269 275 281 287 290 290
302 290 291 289 285 273 270 266 249 249 256 267 274 268 260 265 265 256 248 209 188 175 179 186 202 206 214 210 211 217 222 221 227 238 248 257 264 273 280 288 289 294 301
305 299 295 294 282 270 267 258 243 244 255 266 274 263 266 277 260 234 208 200 202 192 191 186 182 190 203 202 206 213 214 220 231 241 250 259 269 278 288 292 301 306 307
309 305 302 289 277 264 260 245 233 241 254 267 273 259 273 241 235 183 191 183 188 187 189 184 176 176 192 198 202 205 212 223 232 241 250 261 276 289 295 309 312 309 306
316 306 297 288 280 266 258 230 227 242 255 269 259 271 225 205 181 177 180 185 187 196 182 180 173 179 186 194 193 201 213 221 229 236 249 268 285 299 316 321 312 311 305
328 319 305 289 275 262 242 213 222 233 252 245 255 239 185 168 172 180 184 183 186 180 178 178 176 174 183 186 191 201 211 215 221 233 251 277 299 322 326 323 325 326 318
330 329 323 300 274 252 206 202 211 219 215 231 239 179 157 170 175 169 180 183 180 180 175 171 167 173 179 181 189 200 203 207 216 224 250 296 321 336 335 338 344 333 330
329 330 336 328 281 184 178 188 197 193 211 198 184 170 157 161 159 171 178 175 167 167 170 169 165 171 170 177 189 192 194 199 199 204 273 307 341 343 338 19 12 24 34
331 331 326 311 222 191 173 176 175 180 169 166 167 162 159 152 168 160 162 159 166 168 168 163 162 161 164 179 186 185 186 182 175 177 296 336 350 353 34 59 49 60 69
327 347 339 319 230 159 152 156 160 160 151 151 164 160 160 158 154 153 158 161 163 165 159 156 158 164 173 180 181 176 169 164 167 148 9 359 358 22 104 101 84 74 79
343 354 9 104 123 130 137 151 146 140 138 143 153 160 147 150 150 159 164 165 161 154 154 158 165 171 171 177 174 163 160 162 159 118 43 13 11 131 129 130 106 100 91
64 75 92 109 117 127 135 144 138 136 136 151 156 154 151 153 157 163 170 160 152 153 158 165 168 170 172 172 164 162 160 155 148 117 58 26 37 145 143 148 124 124 115
84 92 98 112 118 112 128 132 136 134 143 152 154 153 153 158 160 168 164 153 154 157 164 168 173 172 172 166 164 160 154 148 139 116 72 48 59 151 152 154 143 129 132
90 91 108 112 97 125 124 130 132 133 144 153 156 155 157 160 160 165 154 149 151 157 171 172 171 170 170 167 161 156 152 149 138 112 87 68 68 153 150 163 154 155 145
104 106 114 93 114 130 127 134 138 141 152 156 160 156 160 165 168 160 153 156 151 156 155 176 174 170 168 169 161 159 158 153 139 115 99 85 84 97 168 150 169 161 162
136 123 108 89 137 132 138 160 157 149 155 160 161 159 161 167 174 163 156 156 158 167 190 179 168 164 174 177 172 165 166 158 139 123 117 104 94 87 104 154 160 170 171
127 131 132 125 133 125 141 152 157 154 156 161 164 164 169 172 175 168 164 161 167 182 175 170 167 170 176 176 176 172 175 169 151 147 133 127 110 93 92 81 129 162 183
124 131 132 134 130 134 135 139 149 152 149 157 162 163 173 176 176 170 168 182 185 174 174 171 177 178 179 178 177 177 178 171 166 167 154 142 128 119 113 109 100 119 182
Height
5607 5600 5592 5585 5577 5569 5566 5563 5561 5559 5558 5560 5565 5571 5573 5577 5584 5592 5601 5610 5617 5630 5636 5645 5652 5659 5666 5673 5679 5683 5688 5692 5697 5699 5701 5702 5706 5707 5708 5710 5711 5710 5710
5581 5570 5564 5561 5555 5549 5545 5541 5538 5537 5537 5534 5534 5534 5539 5546 5552 5561 5571 5578 5589 5602 5613 5622 5633 5640 5650 5657 5665 5669 5674 5679 5684 5687 5689 5692 5693 5695 5696 5696 5697 5697 5696
5557 5549 5543 5538 5532 5528 5525 5522 5519 5517 5518 5517 5514 5512 5514 5518 5522 5528 5534 5544 5558 5572 5587 5599 5611 5620 5632 5641 5650 5656 5661 5666 5672 5676 5678 5680 5682 5683 5684 5684 5683 5683 5682
5535 5529 5523 5518 5513 5508 5506 5503 5502 5501 5501 5499 5496 5495 5496 5496 5500 5505 5510 5517 5526 5541 5559 5573 5587 5603 5614 5625 5635 5643 5649 5654 5661 5665 5666 5670 5672 5672 5673 5673 5672 5670 5668
5513 5508 5503 5499 5495 5490 5487 5486 5486 5486 5485 5484 5481 5481 5482 5482 5486 5489 5493 5499 5505 5519 5537 5554 5568 5583 5596 5607 5619 5630 5636 5643 5649 5654 5657 5660 5662 5661 5661 5660 5660 5656 5654
5494 5487 5482 5477 5473 5472 5469 5467 5468 5470 5470 5470 5468 5468 5470 5471 5473 5476 5478 5484 5490 5500 5516 5537 5549 5562 5579 5593 5606 5619 5626 5632 5638 5644 5647 5650 5651 5652 5650 5648 5645 5644 5641
5470 5466 5461 5455 5453 5452 5451 5451 5453 5454 5456 5457 5456 5455 5457 5459 5460 5462 5464 5468 5477 5487 5501 5522 5534 5546 5563 5581 5595 5608 5615 5622 5628 5634 5638 5640 5642 5640 5639 5636 5632 5630 5625
5452 5445 5441 5437 5435 5434 5434 5435 5438 5439 5442 5443 5443 5443 5445 5447 5447 5447 5449 5451 5458 5473 5487 5505 5521 5535 5552 5572 5587 5598 5606 5612 5618 5626 5629 5630 5631 5629 5627 5624 5620 5615 5611
5432 5428 5424 5419 5418 5417 5417 5419 5424 5426 5429 5430 5430 5431 5432 5435 5434 5434 5435 5438 5442 5454 5475 5493 5511 5529 5545 5564 5579 5589 5597 5603 5611 5617 5619 5620 5620 5617 5615 5612 5607 5602 5595
5414 5411 5408 5404 5401 5401 5402 5406 5410 5413 5416 5417 5419 5420 5420 5422 5421 5421 5425 5429 5435 5445 5460 5482 5504 5520 5540 5559 5571 5582 5590 5597 5604 5607 5610 5611 5610 5607 5604 5600 5595 5586 5576
5399 5395 5392 5388 5385 5387 5389 5392 5396 5401 5403 5406 5408 5411 5411 5409 5412 5414 5419 5428 5435 5448 5462 5482 5497 5515 5537 5553 5564 5575 5583 5591 5595 5599 5602 5603 5601 5599 5595 5588 5579 5568 5558
5389 5383 5377 5374 5372 5374 5376 5379 5385 5390 5393 5397 5400 5403 5402 5404 5407 5412 5420 5429 5440 5452 5466 5479 5494 5515 5534 5548 5559 5570 5578 5584 5589 5593 5594 5594 5593 5591 5584 5575 5565 5553 5542
5380 5372 5367 5364 5363 5364 5366 5370 5377 5382 5386 5390 5392 5395 5398 5401 5406 5414 5422 5431 5440 5452 5464 5480 5497 5515 5531 5544 5556 5564 5572 5578 5583 5586 5588 5588 5588 5582 5575 5566 5555 5544 5528
5375 5367 5360 5356 5355 5356 5359 5365 5372 5377 5381 5384 5388 5391 5395 5400 5409 5417 5424 5432 5441 5453 5466 5483 5501 5516 5530 5542 5551 5560 5566 5573 5577 5580 5582 5583 5580 5576 5569 5561 5551 5534 5517
5373 5365 5357 5353 5350 5352 5357 5362 5369 5374 5378 5383 5385 5389 5395 5401 5408 5416 5425 5435 5444 5457 5476 5493 5505 5518 5530 5540 5549 5556 5563 5568 5572 5575 5578 5577 5576 5571 5566 5559 5545 5531 5512
5372 5365 5359 5354 5352 5354 5358 5362 5367 5372 5377 5382 5385 5391 5396 5403 5410 5418 5427 5437 5451 5467 5482 5495 5506 5519 5530 5539 5546 5552 5559 5564 5568 5571 5574 5574 5572 5568 5565 5557 5549 5535 5517
5370 5365 5361 5358 5358 5359 5360 5365 5369 5375 5378 5383 5387 5393 5399 5404 5412 5421 5433 5444 5458 5472 5485 5498 5509 5520 5529 5538 5543 5550 5556 5560 5565 5569 5571 5570 5569 5566 5564 5561 5555 5543 5531
5369 5366 5362 5360 5360 5362 5366 5369 5373 5376 5381 5386 5391 5397 5403 5410 5420 5430 5441 5454 5466 5478 5490 5501 5511 5521 5530 5536 5542 5548 5553 5557 5563 5568 5568 5568 5567 5565 5564 5564 5562 5554 5546
5367 5366 5364 5363 5364 5368 5372 5374 5377 5381 5386 5391 5396 5401 5408 5418 5428 5439 5451 5463 5474 5486 5497 5507 5516 5524 5530 5535 5541 5546 5551 5558 5563 5566 5566 5567 5565 5565 5565 5567 5567 5566 5561
5368 5369 5370 5371 5374 5376 5378 5379 5384 5388 5391 5395 5400 5409 5417 5426 5436 5447 5459 5471 5481 5491 5502 5510 5518 5524 5529 5534 5541 5547 5552 5558 5562 5565 5565 5566 5565 5567 5567 5569 5571 5573 5575
5375 5378 5380 5381 5382 5382 5383 5387 5391 5393 5397 5401 5409 5419 5428 5437 5446 5458 5469 5480 5490 5499 5506 5514 5519 5524 5529 5535 5541 5548 5553 5558 5562 5564 5565 5566 5566 5568 5569 5572 5575 5579 5582
5386 5388 5389 5390 5389 5389 5393 5396 5398 5401 5406 5413 5422 5429 5437 5446 5457 5467 5477 5487 5496 5505 5511 5515 5520 5525 5530 5537 5543 5548 5554 5558 5562 5565 5566 5568 5569 5570 5572 5576 5579 5583 5587
5395 5396 5397 5397 5396 5397 5399 5401 5405 5410 5416 5422 5432 5439 5448 5457 5467 5476 5485 5493 5502 5508 5513 5517 5521 5527 5532 5538 5544 5549 5554 5559 5563 5566 5568 5570 5572 5572 5575 5578 5582 5586 5590
5402 5402 5403 5405 5406 5406 5409 5411 5415 5420 5426 5434 5442 5450 5459 5467 5476 5484 5491 5499 5506 5511 5514 5519 5523 5528 5534 5539 5545 5550 5555 5560 5564 5568 5570 5573 5575 5576 5577 5581 5584 5588 5593
5407 5408 5409 5411 5414 5417 5418 5420 5424 5429 5435 5443 5452 5460 5468 5476 5483 5489 5496 5503 5508 5512 5517 5521 5526 5531 5536 5541 5546 5551 5556 5561 5565 5569 5573 5575 5578 5580 5581 5583 5586 5589 5594
5415 5416 5419 5421 5422 5422 5423 5428 5433 5439 5444 5451 5460 5468 5475 5482 5488 5494 5501 5506 5510 5515 5520 5524 5529 5533 5537 5542 5547 5552 5557 5561 5565 5569 5573 5576 5579 5582 5584 5587 5589 5592 5596